www.pogodaiklimat.ru

Погода и климат >> Архив погоды >> Россия >> Саратовская область >> Александров Гай


АРХИВ ПОГОДЫ в Александровом Гае

Время (UTC), дата Ветер
(напр.,м/с)
 
Видим.   Явления Облачность Т
(С)
Тd
(С)
f
(%)
Тe
(С)
Тes
(С)
Комфортность P
(гПа)
Po
(гПа)
Тmin
(С)
Tmax
(С)
R
(мм)
R24
(мм)
S
(см)
06 15.09 З 2 10 км 9/9 750 м
[Sc]
+17.4 +4.5 42 +18 +18 тепло 1015.5 1012.5
09 15.09 С 3 4000 м слаб. дождь 10/10 660 м
[Frnb]
+16.7 +11.2 70 +16 +16 по сезону 1016.3 1013.3
12 15.09 СЗ 3 10 км {дождь} 9/9 800 м
[Sc]
+18.3 +9.7 57 +19 +19 по сезону 1015.9 1013.0
15 15.09 ЮЗ 2 10 км в посл. час гроза {ливн. осадки} 9/6 1000 м
[Cb calv Ac lent]
+12.3 +11.3 94 +11 +11 холодно 1015.6 1012.6 +19.2 2
18 15.09 З 2 10 км {гроза} 3/0
[Ac As]
+9.8 +9.4 97 +8 +8 прохладно 1016.5 1013.5
21 15.09 З 2 10 км ясно +7.5 +6.3 92 +5 +5 холодно 1016.5 1013.4
00 16.09 З 1 10 км 6/0
[Ci fib]
+4.9 +3.8 93 +3 +3 холодно 1016.6 1013.5
03 16.09 ЮЗ 3 10 км 6/0
[Ac As Ci fib]
+3.8 +3.2 96 -0 -0 очень
холодно
1017.0 1013.9 +2.8
06 16.09 ЮЗ 4 10 км 8/0
[Ci sp]
+15.1 +8.9 66 +14 +17 по сезону 1016.1 1013.1
09 16.09 ЮЗ 7-12
{13}
10 км 8/0
[Ci sp]
+20.2 +4.1 35 +20 +23 тепло 1013.6 1010.7
12 16.09 ЮЗ 10-16
{16}
10 км 5/0
[Ac trans Ci sp]
+23.3 +1.4 24 +23 +23 комфорт 1010.8 1007.9
15 16.09 ЮЗ 5
{16}
10 км 8/0
[Ac As Ci sp]
+20.8 +0.5 26 +21 +21 комфорт 1008.8 1005.9 +23.5
18 16.09 ЮЗ 4 10 км 3/0
[Ci sp]
+14.8 +1.8 41 +14 +14 по сезону 1008.7 1005.7
21 16.09 ЮЗ 4 10 км 9/0
[Ac und Ci sp]
+15.0 +0.8 38 +14 +14 тепло 1007.7 1004.7
00 17.09 ЮЗ 2 10 км 3/0
[Ac trans Ci sp]
+9.7 +1.4 56 +9 +9 по сезону 1007.3 1004.3
03 17.09 ЮЗ 3 10 км 4/0
[Ci]
+8.6 +1.8 62 +6 +6 холодно 1007.3 1004.3 +7.5
06 17.09 ЮЗ 4 10 км 9/3 960 м
[Sc Ac cast Ci sp]
+18.2 +3.2 37 +18 +20 тепло 1006.9 1003.9
09 17.09 З 7-11
{12}
10 км 9/0
[Ac As Ci sp]
+25.6 +4.0 25 +25 +26 комфорт 1005.1 1002.3
12 17.09 СЗ 5
{13}
10 км 8/0
[Ac As Ci sp]
+23.6 +4.2 28 +23 +24 комфорт 1004.2 1001.3
15 17.09 С 1 10 км 9/8 600 м
[Sc Ci sp]
+19.1 +6.4 43 +21 +21 комфорт 1003.9 1001.0 +26.5
18 17.09 штиль 0 10 км 10/10 600 м
[Sc]
+16.8 +7.5 54 +17 +17 тепло 1004.4 1001.5
21 17.09 З 3 4000 м слаб. дождь 10/10 570 м
[Frnb]
+16.1 +10.7 70 +16 +16 тепло 1004.4 1001.5
00 18.09 ЮЗ 3 10 км {дождь} 10/0
[As op]
+14.4 +11.4 82 +13 +13 тепло 1004.7 1001.7
03 18.09 З 3 10 км 4/0
[Ac As Ci fib]
+10.8 +9.4 91 +9 +9 по сезону 1005.6 1002.6 +10.8 0.0
06 18.09 З 1 10 км ясно +17.6 +7.9 53 +19 +25 тепло 1006.7 1003.8 +10.6
09 18.09 З 3 10 км 3/3 1000 м
[Cu hum]
+21.9 +2.9 29 +22 +27 комфорт 1006.6 1003.8
12 18.09 ЮЗ 5-10
{10}
10 км 3/0
[Ci fib]
+23.3 +2.4 25 +23 +25 комфорт 1005.2 1002.3
15 18.09 Ю 3
{10}
10 км 6/0
[Ac As Ci sp]
+19.7 +6.2 41 +21 +21 комфорт 1003.4 1000.5 +23.7
18 18.09 ЮЗ 8-12
{16}
4000 м слаб. ливневой дождь 10/10 1000 м
[Cb cap]
+18.2 +13.3 73 +18 +18 тепло 1001.4 998.5
21 18.09 ЮЗ 10-16
{18}
10 км {ливн. осадки} 10/10 800 м
[Sc]
+18.6 +15.3 81 +18 +18 тепло 999.6 996.7
00 19.09 З 6-11
{18}
10 км {дождь, ливн. осадки} 8/0
[Ac As]
+11.7 +5.8 67 +9 +9 по сезону 1003.2 1000.2
03 19.09 З 8-14
{14}
10 км {дождь} 3/0
[Ci sp]
+9.6 +4.9 72 +6 +6 прохладно 1005.4 1002.4 +9.3 0.0
06 19.09 З 10-19
{19}
10 км 9/8 1000 м
[Cu med, cong Ci sp]
+11.9 +3.9 58 +8 +8 холодно 1007.7 1004.7
09 19.09 З 7-13
{19}
10 км 9/9 800 м
[Sc]
+13.4 +6.1 61 +11 +11 холодно 1010.3 1007.3
12 19.09 СЗ 5-12
{14}
10 км 9/9 900 м
[Sc]
+15.9 +5.2 49 +15 +15 холодно 1012.9 1010.0
15 19.09 З 5
{12}
10 км 9/9 900 м
[Sc]
+14.3 +5.0 54 +13 +13 прохладно 1014.9 1011.9 +16.0
18 19.09 З 3 10 км 3/0
[Ac As]
+8.9 +4.7 75 +7 +7 холодно 1016.4 1013.3
21 19.09 З 3 10 км ясно +6.2 +3.8 85 +3 +3 холодно 1016.8 1013.8
00 20.09 ЮЗ 2 10 км ясно +4.3 +2.9 91 +1 +1 холодно 1017.1 1014.0
03 20.09 З 3 10 км 4/0
[Ac As]
+4.1 +3.6 97 0 0 очень
холодно
1017.5 1014.4 +2.5
06 20.09 З 2 10 км 8/0
[Ci fib]
+12.6 +6.9 68 +12 +16 по сезону 1018.3 1015.3
09 20.09 З 3 10 км 9/4 1000 м
[Cu med, cong Ci sp]
+16.9 +4.6 44 +17 +21 тепло 1017.1 1014.2
12 20.09 З 3 10 км 9/6 1000 м
[Cu med, cong Ci sp]
+16.7 +2.5 38 +17 +18 по сезону 1016.0 1013.0
15 20.09 ЮЗ 1 10 км 9/0
[Ac As]
+14.1 +3.3 48 +15 +15 по сезону 1015.2 1012.2 +17.7
18 20.09 З 1 10 км 8/0
[Ac As]
+10.7 +3.4 61 +11 +11 по сезону 1015.2 1012.2
21 20.09 З 4 10 км 10/0
[Ac As]
+12.1 +4.6 60 +10 +10 по сезону 1014.0 1011.0
00 21.09 З 2 4000 м слаб. дождь 10/10 500 м
[Frnb]
+9.5 +8.9 96 +8 +8 по сезону 1013.7 1010.7
03 21.09 Ю 1 10 км в посл. час дождь 10/10 570 м
[Sc]
+8.8 +7.4 91 +8 +8 прохладно 1012.8 1009.8 +8.7 0.5
06 21.09 З 1 10 км {дождь} 10/10 660 м
[Sc]
+9.8 +8.9 94 +9 +9 прохладно 1011.4 1008.4
09 21.09 З 2 10 км 10/10 720 м
[Sc]
+10.8 +9.2 90 +9 +9 очень
холодно
1010.4 1007.4
12 21.09 З 2 10 км в посл. час дождь 10/10 570 м
[Sc]
+12.6 +7.6 72 +12 +12 очень
холодно
1009.7 1006.8
15 21.09 Ю 1
{10}
10 км в посл. час дождь {ливн. осадки} 10/10 570 м
[Sc]
+8.1 +7.7 97 +7 +7 очень
холодно
1009.8 1006.8 +13.0 2
18 21.09 З 3 10 км {ливн. осадки} 3/0
[Ac As]
+5.8 +4.3 90 +2 +2 очень
холодно
1009.9 1006.8
21 21.09 З 2 10 км 3/0
[Ac As]
+4.8 +3.3 90 +2 +2 очень
холодно
1009.5 1006.4
00 22.09 З 2 10 км ясно +2.8 +2.1 95 -1 -1 очень
холодно
1009.4 1006.3
03 22.09 З 3 10 км 1/0
[Ac As]
+2.0 +0.7 91 -2 -2 очень
холодно
1010.3 1007.2 +2.0

 

Местоположение метеостанции Александров Гай (Саратовская область, Россия): широта 50.15 долгота 48.55 высота над уровнем моря 25 м.

В архиве по умолчанию представлена погода в Александровом Гае за последнюю неделю. Архивные данные за месяц целиком и за предыдущие месяцы, начиная с января 2011 года, Вы можете получить, выбрав интересующий диапазон дат из раскрывающегося списка и нажав кнопку "Ввод!".


*Определитесь, кто Вы:
робот инопланетянин человек

Внимание! Время в таблицах - всемирное. Для получения местного времени необходимо прибавить поправку, которая равна 4 ч.

Смотрите также архив погоды в соседних городах и на ближайших метеорологических станциях:

Погода в Новоузенске (Саратовская область, Россия) (43 км)
Погода в Казталовке (Западно-Казахстанская область, Казахстан) (45 км)
Погода в Жалпактале (Западно-Казахстанская область, Казахстан) (85 км)
Погода в Палласовке (Волгоградская область, Россия) (120 км)
Погода в Жанаказане (Западно-Казахстанская область, Казахстан) (133 км)
Погода в Ершове (Саратовская область, Россия) (137 км)
Погода в Красном Куте (Саратовская область, Россия) (143 км)
Погода в Озинках (Саратовская область, Россия) (143 км)
Погода в Жанибеке (Западно-Казахстанская область, Казахстан) (151 км)
Погода в Жангала (Западно-Казахстанская область, Казахстан) (163 км)

Пояснения к столбцам:

Ветер - указаны скорость ветра в м/с - средняя за 10 мин, порывы в срок и между сроками (в фигурных скобках) и направление, откуда дует ветер: С - северный, СВ - северо-восточный, В - восточный, ЮВ - юго-восточный, Ю - южный, ЮЗ - юго-западный, З - западный, СЗ - северо-западный.
Видимость - горизонтальная дальность видимости в метрах или километрах. При видимости от 1 до 10 км при отсутствии осадков обычно наблюдается дымка, при ухудшении видимости до 1 км и менее - туман. В сухую погоду видимость может ухудшаться дымом, пылью или мглою.
Явления - указаны атмосферные явления, наблюдавшиеся в срок или в последний час перед сроком; фигурными скобками обозначены явления, наблюдавшиеся между сроками (за 1-3 часа до срока); квадратными скобками обозначены град или гололедные отложения с указанием их диаметра в мм.
Облачность - указаны через наклонную черту общая и нижняя облачность в баллах и высота нижней границы облаков в метрах; квадратными скобками обозначены формы облаков: Ci - перистые, Cs - перисто-слоистые, Cc - перисто-кучевые, Ac - высококучевые, As - высокослоистые, Sc - слоисто-кучевые, Ns - слоисто-дождевые, Cu - кучевые, Cb - кучево-дождевые. Подробнее классификацию облаков см. в Атласе облаков (PDF).
T - Температура воздуха - температура, измеренная на высоте 2 м над землей.
Td - Температура точки росы - температура, при понижении до которой содержащийся в воздухе водяной пар достигнет насыщения.
f - Относительная влажность воздуха - влажноcть воздуха, измеренная на высоте 2 м над землей.
Te - Эффективная температура - температура, которую ощущает одетый по сезону человек в тени. Характеристика душности погоды. При расчете учитывается влияние влажности воздуха и скорости ветра на теплоощущения человека.
Tes - Эффективная температура на солнце - температура, которую ощущает человек, с поправкой на солнечный нагрев. Характеристика знойности погоды. Зависит от высоты солнца над горизонтом, облачности и скорости ветра. Ночью, в пасмурную погоду, а также при ветре 12 м/с и более поправка равна нулю.
P - Атмосферное давление - приведенное к уровню моря атмосферное давление.
Po - Атмосферное давление - измеренное на уровне метеостанции атмосферное давление.
Tmin - Минимальная температура - минимум температуры воздуха на высоте 2 м над землей.
Tmax - Максимальная температура - максимум температуры воздуха на высоте 2 м над землей.
R - Количество осадков - Количество выпавших осадков за период времени, мм. При наведении курсора мыши на число - период времени, за который выпало указанное количество осадков.
R24 - Количество осадков - Количество выпавших осадков за 24 часа, мм.
S - Снежный покров - Высота снежного покрова, см. При наведении курсора мыши на число - состояние снежного покрова и степень покрытия местности в баллах.